www.pogodaiklimat.ru

Погода и климат >> Архив погоды >> Россия >> Дагестан >> Изберг


ПОГОДА в Изберге

  • Прогноз погоды в Изберге
  • Монитор погоды в Изберге
  • Климат города

АРХИВ ПОГОДЫ в Изберге

Время (UTC), дата Ветер
(напр.,м/с)
 
Видим.   Явления Облачность Т
(С)
Тd
(С)
f
(%)
Тe
(С)
Тes
(С)
Комфортность P
(гПа)
Po
(гПа)
Тmin
(С)
Tmax
(С)
R
(мм)
R24
(мм)
S
(см)
06 19.04 С 6 1000 м в посл. час туман 6/1 600 м
[Cu hum Ac lent Ci fib]
+9.1 +8.6 97 +5 +8 1006.8 1009.0
09 19.04 В 2
{11}
20 км 10/10 600 м
[Cb calv]
+12.1 +9.5 84 +11 +11 1008.0 1010.2
12 19.04 ЮВ 4 20 км 10/6 600 м
[Cb calv As trans]
+13.3 +10.1 81 +12 +13 1010.2 1012.4
15 19.04 СЗ 11-17
{18}
20 км 9/8 600 м
[Cb calv Ac cast]
+14.4 +9.4 72 +12 +12 1011.6 1013.8 +15.3
18 19.04 З 6-10
{20}
20 км 10/6 600 м
[Cu hum Ac trans]
+14.3 +6.9 61 +13 +13 1016.0 1018.2
21 19.04 СЗ 7-11
{14}
20 км {ливн. осадки} 6/3 600 м
[Cu hum Ac trans]
+13.6 +6.2 61 +11 +11 1017.8 1020.0
00 20.04 С 7-11
{12}
20 км {ливн. осадки} 8/3 600 м
[Cu hum Ac und]
+11.1 +5.6 69 +8 +8 1019.9 1022.1
03 20.04 СЗ 5
{11}
50 км 9/4 600 м
[Cb calv Ac lent]
+10.2 +4.1 66 +7 +7 1021.7 1024.0 +10.1
06 20.04 С 5 50 км 10/3 600 м
[Cu hum Ac lent]
+10.8 +6.4 74 +8 +9 1022.1 1024.3
09 20.04 С 4 50 км 8/3 600 м
[Cu hum Ac und]
+11.9 +5.9 67 +10 +14 1021.3 1023.5
12 20.04 В 3 50 км 1/1 600 м
[Cu hum]
+11.3 +6.8 74 +10 +16 1020.7 1022.9
15 20.04 ЮВ 5 50 км ясно +10.6 +6.0 73 +8 +8 1020.3 1022.5 +12.7
18 20.04 Ю 3 20 км 1/1 600 м
[Cu hum]
+8.7 +3.9 72 +6 +6 1020.6 1022.8
21 20.04 ЮЗ 2 20 км ясно +5.6 +2.8 82 +3 +3 1019.2 1021.4
00 21.04 Ю 3 20 км ясно +6.0 +2.8 80 +3 +3 1017.7 1020.0
03 21.04 Ю 3 20 км ясно +7.6 +3.8 77 +5 +6 1017.2 1019.4 +5.5
06 21.04 ЮВ 8-10
{11}
20 км 3/0
[Ac lent]
+11.4 +6.8 73 +8 +9 1016.4 1018.6
09 21.04 ЮВ 7
{11}
20 км 10/0
[Ac und]
+11.6 +7.9 78 +8 +10 1014.6 1016.8
12 21.04 В 5 20 км 10/8 600 м
[Cu hum Ac trans]
+10.9 +8.2 83 +8 +8 1012.9 1015.1
15 21.04 ЮВ 5 20 км 10/10 600 м
[Cb calv]
+10.1 +8.8 92 +7 +7 1010.4 1012.6 +12.2
18 21.04 ЮВ 2 20 км 10/10 600 м
[Sc diur, vesp]
+9.7 +8.3 91 +8 +8 1008.8 1011.0
21 21.04 СЗ 4 н/о н/о +9.7 +8.5 92 +7 +7 1008.0 1010.2
00 22.04 С 5 20 км 10/8 600 м
[Cu hum Ac trans]
+10.0 +8.5 90 +7 +7 1008.7 1010.8
03 22.04 СЗ 12-18
{18}
20 км 10/3 600 м
[Cb calv Ac As]
+9.5 +6.1 79 +4 +4 1011.7 1013.9 +8.8
06 22.04 СЗ 8-13
{22}
20 км 10/10 600 м
[Cb calv]
+9.8 +4.0 67 +6 +6 1015.1 1017.3
09 22.04 СЗ 5
{13}
20 км 10/10 600 м
[Cu hum]
+10.0 +3.4 64 +7 +7 1017.4 1019.6
12 22.04 С 3 50 км 10/8 600 м
[Cb calv Ac trans]
+11.0 +3.7 61 +9 +10 1019.2 1021.4
15 22.04 ЮВ 5 50 км 8/1 600 м
[Cu med, cong Ac cast Ci]
+10.5 +6.0 74 +8 +8 1019.0 1021.2 +11.3
18 22.04 ЮЗ 2 20 км 4/0
[Ac trans]
+7.2 +3.4 77 +5 +5 1021.8 1024.0
21 22.04 Ю 2 20 км 6/0
[Ci]
+7.2 +3.6 78 +5 +5 1021.1 1023.3
00 23.04 Ю 3 20 км ясно +5.4 +2.7 83 +2 +2 1019.6 1021.8
03 23.04 ЮВ 5-10
{10}
50 км 10/0
[Cs]
+8.5 +4.5 76 +5 +5 1017.9 1020.1 +4.8
06 23.04 ЮВ 8-12
{14}
50 км 10/0
[Ac und Cs]
+10.0 +6.5 79 +6 +7 1015.1 1017.3
09 23.04 ЮВ 7
{12}
20 км 10/0
[Ac trans Cs]
+12.6 +8.0 74 +10 +13 1009.1 1011.2
12 23.04 ЮВ 5
{15}
20 км 10/0
[Ac trans Cs]
+13.0 +8.2 73 +11 +14 1004.1 1006.3
15 23.04 В 3 20 км 10/0
[Ac As]
+10.8 +8.1 83 +9 +9 1000.0 1002.2 +13.4
18 23.04 Ю 1 20 км 10/3 600 м
[Cu hum Ac und]
+9.8 +8.4 91 +9 +9 995.6 997.8
21 23.04 СВ 1 20 км 10/0
[Ac und]
+9.2 +8.0 92 +8 +8 996.1 998.3
00 24.04 СЗ 15-21
{23}
20 км 10/0
[Ac und]
+16.7 +5.8 49 +15 +15 999.9 1002.0
03 24.04 СЗ 10-13
{21}
50 км 8/6 600 м
[Cu med, cong Ac trans]
+13.4 +5.8 60 +10 +10 1007.4 1009.3 +8.9
06 24.04 С 6 50 км 10/0
[Ac und]
+13.4 +5.2 58 +11 +13 1012.5 1014.6
09 24.04 СЗ 3 50 км 10/5 600 м
[Cu hum Ac lent]
+13.2 +5.2 58 +12 +14 1013.9 1016.1
12 24.04 З 3 50 км {ливн. осадки} 10/10 600 м
[Cb calv]
+14.7 +5.0 52 +14 +14 1013.7 1015.9
15 24.04 ЮЗ 5 20 км 8/3 600 м
[Cu hum Ac trans Ci fib]
+14.7 +4.8 51 +13 +13 1014.9 1017.1 +16.5
18 24.04 ЮЗ 4 20 км ясно +11.6 +3.9 59 +10 +10 1016.5 1018.7
21 24.04 ЮЗ 2 20 км ясно +8.5 +3.8 72 +7 +7 1017.1 1019.3
00 25.04 СЗ 9-14
{19}
20 км ясно +10.8 +4.6 66 +7 +7 1020.5 1022.7
03 25.04 СЗ 10-17
{17}
50 км 10/10 600 м
[Cb calv]
+7.9 +3.7 75 +3 +3 1023.8 1026.0 +7.9
06 25.04 СЗ 5
{17}
20 км {ливн. осадки} 10/10 600 м
[Cb calv]
+7.5 +4.1 79 +4 +4 1027.1 1029.3 +6.4
09 25.04 СЗ 6
{11}
50 км 10/6 600 м
[Cb calv Ac lent]
+8.9 +3.1 67 +5 +6 1028.5 1030.7
12 25.04 СВ 1 50 км 10/3 600 м
[Cb calv Ac lent]
+9.5 +4.7 72 +9 +11 1028.6 1030.8
15 25.04 ЮВ 2 50 км 10/4 600 м
[Cb calv Ac cast]
+10.0 +4.2 67 +9 +9 1029.5 1031.7 +10.0
18 25.04 ЮЗ 1 20 км 10/3 600 м
[Cu hum Ac und]
+9.9 +1.6 56 +10 +10 1031.4 1033.6
21 25.04 З 3 20 км ясно +6.0 -0.1 65 +3 +3 1031.6 1033.8
00 26.04 З 2 20 км ясно +6.4 -0.2 63 +4 +4 1032.2 1034.4

 

Местоположение метеостанции Изберг (Дагестан, Россия): широта 42.53 долгота 47.92 высота над уровнем моря -16 м.

В архиве по умолчанию представлена погода в Изберге за последнюю неделю. Архивные данные за месяц целиком и за предыдущие месяцы, начиная с января 2011 года, Вы можете получить, выбрав интересующий диапазон дат из раскрывающегося списка и нажав кнопку "Ввод!".

Внимание! Время в таблицах - всемирное. Для получения местного времени необходимо прибавить поправку, которая в Изберге равна 3 ч.

Смотрите также архив погоды в соседних городах и на ближайших метеорологических станциях:

Погода в Сергокале (Дагестан, Россия) (22 км)
Погода в Дербенте (Дагестан, Россия) (60 км)
Погода в Махачкале (Дагестан, Россия) (65 км)
Погода в Куппе (Дагестан, Россия) (68 км)
Погода в Буйнакске (Дагестан, Россия) (73 км)
Погода в Гунибе (Дагестан, Россия) (79 км)
Погода в Кумухе (Дагестан, Россия) (80 км)
Погода в Касумкенте (Дагестан, Россия) (98 км)
Погода в Хунзахе (Дагестан, Россия) (100 км)
Погода в Ахты (Дагестан, Россия) (119 км)

Пояснения к столбцам:

Ветер - указаны скорость ветра в м/с - средняя за 10 мин, порывы в срок и между сроками (в фигурных скобках) и направление, откуда дует ветер: С - северный, СВ - северо-восточный, В - восточный, ЮВ - юго-восточный, Ю - южный, ЮЗ - юго-западный, З - западный, СЗ - северо-западный.
Видимость - горизонтальная дальность видимости в метрах или километрах. При видимости от 1 до 10 км при отсутствии осадков обычно наблюдается дымка, при ухудшении видимости до 1 км и менее - туман. В сухую погоду видимость может ухудшаться дымом, пылью или мглою.
Явления - указаны атмосферные явления, наблюдавшиеся в срок или в последний час перед сроком; фигурными скобками обозначены явления, наблюдавшиеся между сроками (за 1-3 часа до срока); квадратными скобками обозначены град или гололедные отложения с указанием их диаметра в мм.
Облачность - указаны через наклонную черту общая и нижняя облачность в баллах и высота нижней границы облаков в метрах; квадратными скобками обозначены формы облаков: Ci - перистые, Cs - перисто-слоистые, Cc - перисто-кучевые, Ac - высококучевые, As - высокослоистые, Sc - слоисто-кучевые, Ns - слоисто-дождевые, Cu - кучевые, Cb - кучево-дождевые. Подробнее классификацию облаков см. в Атласе облаков (PDF).
T - Температура воздуха - температура, измеренная на высоте 2 м над землей.
Td - Температура точки росы - температура, при понижении до которой содержащийся в воздухе водяной пар достигнет насыщения.
f - Относительная влажность воздуха - влажноcть воздуха, измеренная на высоте 2 м над землей.
Te - Эффективная температура - температура, которую ощущает одетый по сезону человек в тени. Характеристика душности погоды. При расчете учитывается влияние влажности воздуха и скорости ветра на теплоощущения человека.
Tes - Эффективная температура на солнце - температура, которую ощущает человек, с поправкой на солнечный нагрев. Характеристика знойности погоды. Зависит от высоты солнца над горизонтом, облачности и скорости ветра. Ночью, в пасмурную погоду, а также при ветре 12 м/с и более поправка равна нулю.
P - Атмосферное давление - приведенное к уровню моря атмосферное давление.
Po - Атмосферное давление - измеренное на уровне метеостанции атмосферное давление.
Tmin - Минимальная температура - минимум температуры воздуха на высоте 2 м над землей.
Tmax - Максимальная температура - максимум температуры воздуха на высоте 2 м над землей.
R - Количество осадков - Количество выпавших осадков за период времени, мм. При наведении курсора мыши на число - период времени, за который выпало указанное количество осадков.
R24 - Количество осадков - Количество выпавших осадков за 24 часа, мм.
S - Снежный покров - Высота снежного покрова, см. При наведении курсора мыши на число - состояние снежного покрова и степень покрытия местности в баллах.